TimeCDT,TemperatureF,Dew PointF,Humidity,Sea Level PressureIn,VisibilityMPH,Wind Direction,Wind SpeedMPH,Gust SpeedMPH,PrecipitationIn,Events,Conditions,WindDirDegrees,DateUTC
12:54 AM,48.9,46.9,93,30.05,10.0,Calm,Calm,-,N/A,,Clear,0,2013-09-03 05:54:00
1:54 AM,48.0,46.9,96,30.06,10.0,Calm,Calm,-,N/A,,Clear,0,2013-09-03 06:54:00
2:33 AM,46.4,46.4,100,30.06,1.5,Calm,Calm,-,N/A,,Clear,0,2013-09-03 07:33:00
2:42 AM,46.4,46.4,100,30.06,0.8,Calm,Calm,-,N/A,,Clear,0,2013-09-03 07:42:00
2:46 AM,46.4,46.4,100,30.06,2.0,Calm,Calm,-,N/A,,Clear,0,2013-09-03 07:46:00
2:54 AM,46.0,45.0,96,30.06,6.0,Calm,Calm,-,N/A,,Clear,0,2013-09-03 07:54:00
3:21 AM,46.4,46.4,100,30.06,1.8,Calm,Calm,-,N/A,,Clear,0,2013-09-03 08:21:00
3:31 AM,46.4,46.4,100,30.06,0.8,Calm,Calm,-,N/A,,Clear,0,2013-09-03 08:31:00
3:38 AM,46.4,46.4,100,30.06,2.5,Calm,Calm,-,N/A,,Clear,0,2013-09-03 08:38:00
3:45 AM,46.4,46.4,100,30.06,7.0,Calm,Calm,-,N/A,,Clear,0,2013-09-03 08:45:00
3:54 AM,46.0,45.0,96,30.06,7.0,Calm,Calm,-,N/A,,Clear,0,2013-09-03 08:54:00
4:06 AM,46.4,44.6,93,30.07,1.8,Calm,Calm,-,N/A,,Clear,0,2013-09-03 09:06:00
4:16 AM,46.4,44.6,93,30.07,3.0,Calm,Calm,-,N/A,,Clear,0,2013-09-03 09:16:00
4:54 AM,46.0,45.0,96,30.08,10.0,Calm,Calm,-,N/A,,Clear,0,2013-09-03 09:54:00
5:54 AM,45.0,45.0,100,30.09,7.0,Calm,Calm,-,N/A,,Clear,0,2013-09-03 10:54:00
6:54 AM,45.0,44.1,97,30.10,10.0,Calm,Calm,-,N/A,,Clear,0,2013-09-03 11:54:00
7:54 AM,50.0,48.9,96,30.12,10.0,NW,3.5,-,0.01,,Clear,320,2013-09-03 12:54:00
8:54 AM,55.9,52.0,87,30.13,10.0,West,3.5,-,N/A,,Clear,270,2013-09-03 13:54:00
9:54 AM,62.1,53.1,72,30.13,10.0,Calm,Calm,-,N/A,,Clear,0,2013-09-03 14:54:00
10:54 AM,66.0,51.1,59,30.12,10.0,West,5.8,-,N/A,,Clear,260,2013-09-03 15:54:00
11:54 AM,68.0,52.0,56,30.11,10.0,Variable,4.6,-,N/A,,Clear,0,2013-09-03 16:54:00
12:54 PM,70.0,54.0,57,30.09,10.0,SW,5.8,-,N/A,,Clear,220,2013-09-03 17:54:00
1:54 PM,73.0,52.0,48,30.08,10.0,SSE,5.8,-,N/A,,Clear,160,2013-09-03 18:54:00
2:54 PM,73.0,51.1,46,30.06,10.0,Calm,Calm,-,N/A,,Clear,0,2013-09-03 19:54:00
3:54 PM,75.9,53.1,45,30.05,10.0,SW,5.8,-,N/A,,Clear,230,2013-09-03 20:54:00
4:54 PM,75.0,52.0,44,30.04,10.0,West,6.9,-,N/A,,Clear,270,2013-09-03 21:54:00
5:54 PM,75.0,52.0,44,30.04,10.0,West,4.6,-,N/A,,Clear,280,2013-09-03 22:54:00
6:54 PM,73.0,55.0,53,30.04,10.0,Calm,Calm,-,N/A,,Clear,0,2013-09-03 23:54:00
7:54 PM,66.9,55.9,68,30.03,10.0,Calm,Calm,-,N/A,,Clear,0,2013-09-04 00:54:00
8:54 PM,61.0,55.9,83,30.04,10.0,ESE,3.5,-,N/A,,Clear,120,2013-09-04 01:54:00
9:54 PM,60.1,55.9,86,30.05,10.0,ENE,3.5,-,N/A,,Clear,60,2013-09-04 02:54:00
10:54 PM,60.1,55.0,83,30.05,10.0,Calm,Calm,-,N/A,,Clear,0,2013-09-04 03:54:00
11:54 PM,57.9,54.0,87,30.05,10.0,Calm,Calm,-,N/A,,Clear,0,2013-09-04 04:54:00